| time (UTC) | temp F | wind direction | speed knots | gust knots | rain 1hr in | rain 24hr in | rain mn in | humidity % | barometer mb |
| 20260506011558 | 69 | 16 | 5.2 | 11.3 | 0.00 | 0.00 | 0.00 | 72 | 1004.5 |
| 20260506010057 | 70 | 355 | 7.0 | 13.0 | 0.00 | 0.00 | 0.00 | 71 | 1004.3 |
| 20260506004551 | 71 | 355 | 7.0 | 10.4 | 0.00 | 0.00 | 0.00 | 71 | 1003.9 |
| 20260506003049 | 72 | 11 | 5.2 | 11.3 | 0.00 | 0.00 | 0.00 | 70 | 1003.9 |
| 20260506001547 | 73 | 5 | 9.6 | 13.9 | 0.00 | 0.00 | 0.00 | 68 | 1003.6 |
| 20260506000047 | 74 | 324 | 8.7 | 13.9 | 0.00 | 0.00 | 0.00 | 67 | 1003.4 |
| 20260505234555 | 75 | 350 | 7.8 | 13.0 | 0.00 | 0.00 | 0.00 | 66 | 1003.3 |
| 20260505233051 | 76 | 333 | 7.8 | 13.9 | 0.00 | 0.00 | 0.00 | 65 | 1003.2 |
| 20260505231551 | 77 | 360 | 7.0 | 13.9 | 0.00 | 0.00 | 0.00 | 64 | 1003.2 |
| 20260505230043 | 79 | 27 | 7.0 | 13.0 | 0.00 | 0.00 | 0.00 | 63 | 1002.8 |
| 20260505224543 | 79 | 297 | 7.0 | 12.2 | 0.00 | 0.00 | 0.00 | 63 | 1002.9 |
| 20260505223050 | 81 | 15 | 5.2 | 15.6 | 0.00 | 0.00 | 0.00 | 62 | 1002.4 |
| 20260505221540 | 83 | 320 | 6.1 | 11.3 | 0.00 | 0.00 | 0.00 | 61 | 1002.3 |
| 20260505220042 | 84 | 16 | 7.8 | 13.9 | 0.00 | 0.00 | 0.00 | 52 | 1002.2 |
| 20260505214547 | 84 | 360 | 7.8 | 11.3 | 0.00 | 0.00 | 0.00 | 52 | 1002.1 |
| 20260505213036 | 85 | 334 | 7.0 | 14.8 | 0.00 | 0.00 | 0.00 | 50 | 1002.3 |
| 20260505211534 | 87 | 360 | 7.8 | 15.6 | 0.00 | 0.00 | 0.00 | 49 | 1002.1 |
| 20260505210034 | 88 | 223 | 3.5 | 8.7 | 0.00 | 0.00 | 0.00 | 55 | 1002.3 |
| 20260505204535 | 87 | 252 | 5.2 | 8.7 | 0.00 | 0.00 | 0.00 | 54 | 1002.4 |
| 20260505203032 | 87 | 285 | 5.2 | 10.4 | 0.00 | 0.00 | 0.00 | 54 | 1002.5 |
| 20260505201528 | 87 | 175 | 3.5 | 8.7 | 0.00 | 0.00 | 0.00 | 53 | 1002.6 |
| 20260505200037 | 87 | 319 | 3.5 | 9.6 | 0.00 | 0.00 | 0.00 | 55 | 1002.8 |
| 20260505194524 | 87 | 279 | 3.5 | 10.4 | 0.00 | 0.00 | 0.00 | 57 | 1003.0 |
| 20260505193022 | 87 | 230 | 2.6 | 10.4 | 0.00 | 0.00 | 0.00 | 59 | 1002.9 |
| 20260505191519 | 86 | 208 | 6.1 | 13.0 | 0.00 | 0.00 | 0.00 | 59 | 1002.9 |
| 20260505190017 | 85 | 232 | 6.1 | 13.9 | 0.00 | 0.00 | 0.00 | 61 | 1002.9 |
| 20260505184513 | 84 | 238 | 6.1 | 12.2 | 0.00 | 0.00 | 0.00 | 64 | 1003.0 |
| 20260505183012 | 83 | 198 | 3.5 | 13.9 | 0.00 | 0.00 | 0.00 | 66 | 1003.1 |
| 20260505181505 | 82 | 186 | 6.1 | 13.9 | 0.00 | 0.00 | 0.00 | 68 | 1003.2 |
| 20260505180006 | 82 | 248 | 6.1 | 13.0 | 0.00 | 0.00 | 0.00 | 68 | 1003.2 |
| 20260505174501 | 81 | 193 | 5.2 | 13.0 | 0.00 | 0.00 | 0.00 | 71 | 1003.3 |
| 20260505173003 | 81 | 197 | 4.3 | 13.9 | 0.00 | 0.00 | 0.00 | 70 | 1003.4 |
| 20260505171605 | 81 | 167 | 7.0 | 13.9 | 0.00 | 0.00 | 0.00 | 69 | 1003.3 |
| 20260505170057 | 81 | 194 | 5.2 | 12.2 | 0.00 | 0.00 | 0.00 | 71 | 1003.3 |
| 20260505164616 | 80 | 212 | 5.2 | 16.5 | 0.00 | 0.00 | 0.00 | 71 | 1003.3 |
| 20260505163101 | 80 | 160 | 7.8 | 19.1 | 0.00 | 0.00 | 0.00 | 73 | 1003.3 |
| 20260505161550 | 78 | 178 | 6.1 | 16.5 | 0.00 | 0.00 | 0.00 | 74 | 1003.2 |
| 20260505153041 | 76 | 200 | 6.1 | 13.0 | 0.00 | 0.00 | 0.00 | 78 | 1002.9 |
| 20260505151537 | 74 | 205 | 7.0 | 13.9 | 0.00 | 0.00 | 0.00 | 80 | 1002.9 |
| 20260505124535 | 70 | 168 | 7.0 | 14.8 | 0.00 | 0.00 | 0.00 | 86 | 1002.7 |
| 20260505123029 | 70 | 137 | 6.1 | 12.2 | 0.00 | 0.00 | 0.00 | 86 | 1002.4 |
| 20260505121528 | 70 | 177 | 7.0 | 15.6 | 0.00 | 0.00 | 0.00 | 86 | 1002.2 |
| 20260505120027 | 69 | 171 | 7.0 | 13.0 | 0.00 | 0.00 | 0.00 | 86 | 1002.2 |
| 20260505114527 | 69 | 170 | 6.1 | 12.2 | 0.00 | 0.00 | 0.00 | 87 | 1002.0 |
| 20260505113027 | 69 | 175 | 4.3 | 10.4 | 0.00 | 0.00 | 0.00 | 87 | 1002.0 |
| 20260505111534 | 69 | 165 | 4.3 | 13.0 | 0.00 | 0.00 | 0.00 | 87 | 1001.9 |
| 20260505101518 | 69 | 169 | 5.2 | 12.2 | 0.00 | 0.00 | 0.00 | 87 | 1001.9 |
| 20260505100023 | 69 | 165 | 4.3 | 12.2 | 0.00 | 0.00 | 0.00 | 87 | 1001.9 |
| 20260505094517 | 69 | 222 | 7.8 | 18.2 | 0.00 | 0.00 | 0.00 | 86 | 1001.9 |
| 20260505093014 | 69 | 165 | 7.8 | 13.9 | 0.00 | 0.00 | 0.00 | 86 | 1001.8 |
| 20260505091510 | 69 | 157 | 6.1 | 14.8 | 0.00 | 0.00 | 0.00 | 85 | 1002.0 |
| 20260505090007 | 70 | 145 | 4.3 | 13.0 | 0.00 | 0.00 | 0.00 | 84 | 1002.4 |
| 20260505084506 | 70 | 169 | 6.1 | 13.0 | 0.00 | 0.00 | 0.00 | 84 | 1002.5 |
| 20260505083012 | 70 | 146 | 7.8 | 13.0 | 0.00 | 0.00 | 0.00 | 83 | 1002.5 |
| 20260505081507 | 70 | 187 | 6.1 | 13.9 | 0.00 | 0.00 | 0.00 | 82 | 1002.5 |
| 20260505080001 | 71 | 171 | 7.8 | 16.5 | 0.00 | 0.00 | 0.00 | 81 | 1002.4 |
| 20260505074600 | 71 | 167 | 7.0 | 14.8 | 0.00 | 0.00 | 0.00 | 80 | 1002.5 |
| 20260505073057 | 71 | 141 | 7.8 | 16.5 | 0.00 | 0.00 | 0.00 | 79 | 1002.9 |
| 20260505071556 | 71 | 157 | 7.8 | 15.6 | 0.00 | 0.00 | 0.00 | 79 | 1003.2 |
| 20260505070056 | 72 | 184 | 8.7 | 20.9 | 0.00 | 0.00 | 0.00 | 78 | 1003.3 |
| 20260505064548 | 72 | 171 | 7.0 | 13.9 | 0.00 | 0.00 | 0.00 | 78 | 1003.6 |
| 20260505063047 | 72 | 212 | 7.0 | 14.8 | 0.00 | 0.00 | 0.00 | 77 | 1003.8 |
| 20260505061543 | 72 | 144 | 7.8 | 13.0 | 0.00 | 0.00 | 0.00 | 77 | 1003.8 |
| 20260505060041 | 73 | 159 | 7.8 | 16.5 | 0.00 | 0.00 | 0.00 | 76 | 1003.8 |
| 20260505054550 | 73 | 177 | 6.1 | 16.5 | 0.00 | 0.00 | 0.00 | 76 | 1003.8 |
| 20260505053051 | 74 | 167 | 7.8 | 18.2 | 0.00 | 0.00 | 0.00 | 75 | 1003.6 |
| 20260505051538 | 74 | 149 | 6.1 | 20.9 | 0.00 | 0.00 | 0.00 | 74 | 1003.6 |
| 20260505041527 | 75 | 217 | 7.8 | 19.1 | 0.00 | 0.00 | 0.00 | 73 | 1004.0 |
| 20260505040035 | 75 | 182 | 9.6 | 19.1 | 0.00 | 0.00 | 0.00 | 72 | 1004.1 |
| 20260505034526 | 75 | 158 | 7.0 | 19.1 | 0.00 | 0.00 | 0.00 | 72 | 1003.9 |
| 20260505033030 | 75 | 169 | 9.6 | 16.5 | 0.00 | 0.00 | 0.00 | 71 | 1003.8 |
| 20260505031525 | 75 | 131 | 7.0 | 15.6 | 0.00 | 0.00 | 0.00 | 71 | 1003.9 |
| 20260505030027 | 75 | 192 | 7.0 | 14.8 | 0.00 | 0.00 | 0.00 | 71 | 1003.7 |
| 20260505024523 | 75 | 155 | 6.1 | 14.8 | 0.00 | 0.00 | 0.00 | 71 | 1004.0 |
| 20260505023023 | 76 | 161 | 3.5 | 14.8 | 0.00 | 0.00 | 0.00 | 71 | 1003.9 |
| 20260505021526 | 76 | 180 | 4.3 | 12.2 | 0.00 | 0.00 | 0.00 | 71 | 1003.8 |
| 20260505020021 | 76 | 128 | 2.6 | 13.0 | 0.00 | 0.00 | 0.00 | 70 | 1003.6 |
| 20260505014520 | 76 | 161 | 6.1 | 11.3 | 0.00 | 0.00 | 0.00 | 70 | 1003.8 |
| 20260505013020 | 76 | 170 | 5.2 | 11.3 | 0.00 | 0.00 | 0.00 | 69 | 1003.8 |